Regional Weather Roundup
Issued by NWS

Home | Current Version | Previous Version | Text Only | Print | Product List | Glossary Off
Versions: 1 2 3 4 5 6 7 8 9 10 11 12 13 14 15 16 17 18 19 20 21 22 23 24 25 26 27 28 29 30 31 32 33 34 35 36 37 38 39 40 41 42 43 44 45 46 47 48 49 50

000
ASUS45 KTFX 300004
RWRMT
MONTANA REGIONAL WEATHER ROUNDUP
NATIONAL WEATHER SERVICE GREAT FALLS MT
600 PM MDT SAT AUG 29 2015

NOTE: "FAIR" INDICATES FEW OR NO CLOUDS BELOW 12000 FEET WITH NO
SIGNIFICANT WEATHER AND/OR OBSTRUCTIONS TO VISIBILITY.

MTZ001>007-043-300100-
WEST OF THE DIVIDE

CITY           SKY/WX    TMP DP  RH WIND       PRES   REMARKS
KALISPELL      CLOUDY    78  42  27 S7        29.76R
MISSOULA       CLOUDY    78  42  27 NW16      29.80R HAZE
BUTTE          CLOUDY    74  51  44 CALM      29.90R
MULLAN PASS    CLOUDY    56  43  61 NW8G18    29.99S HAZE
DEER LODGE       N/A     79  48  34 N5        29.85F
EUREKA           N/A     73  43  33 W20       29.80R
HAMILTON         N/A     75  52  43 N7        29.77R
LIBBY            N/A     70  45  40 W6        29.84R
$$

MTZ008-052>055-300100-
SOUTHWEST MONTANA

CITY           SKY/WX    TMP DP  RH WIND       PRES   REMARKS
BOZEMAN        CLOUDY    86  43  22 S25G33    29.82F
DILLON         CLOUDY    87  36  16 S24G30    29.84F
W YELLOWSTONE  CLOUDY    68  45  42 W6        30.11S
$$

MTZ009-010-012-014-046-048-049-054-300100-
EAST SLOPES AND CENTRAL MONTANA

CITY           SKY/WX    TMP DP  RH WIND       PRES   REMARKS
CUT BANK       MOSUNNY   84  43  23 S10       29.72F
GREAT FALLS    LGT RAIN  74  54  49 W12       29.74R
MALMSTROM AFB  LGT RAIN  76  54  46 N8G18     29.74R
HELENA         CLOUDY    79  52  38 NW8       29.77R
$$

MTZ011-013-016-021-045-047-050-051-300100-
NORTH CENTRAL MONTANA

CITY           SKY/WX    TMP DP  RH WIND       PRES   REMARKS
HAVRE          PTSUNNY   91  48  22 SE10      29.67F
LEWISTOWN      CLOUDY    89  42  19 S18G26    29.79F
N BAR RANCH      N/A     84  39  20 S14G23    29.88F
CHINOOK          N/A     88  54  31 E7        29.67F
FORT BENTON      N/A     88  45  22 NE3       29.67F
$$

MTZ017>020-022>027-061-062-300100-
NORTHEAST MONTANA

CITY           SKY/WX    TMP DP  RH WIND       PRES   REMARKS
GLASGOW        HAZE      90  41  18 E15       29.73F VSB 1/2
JORDAN           N/A     94  40  15 S12       29.76F HX  90
SIDNEY         PTSUNNY   90  57  33 CALM      29.77F
WOLF POINT     HAZE      92  47  21 E6        29.75F VSB 3/4
PLENTYWOOD       N/A     88  46  23 SE6       29.80S VSB 1
POPLAR           N/A     90  46  22 NE5       29.76F VSB 3/4
$$

MTZ028>42-056>058-300100-
SOUTHCENTRAL AND SOUTHEAST MONTANA

CITY           SKY/WX    TMP DP  RH WIND       PRES   REMARKS
BAKER          PTSUNNY   92  47  21 S10       29.86F
BILLINGS       CLOUDY    87  44  22 SW8       29.86F
LIVINGSTON     PTSUNNY   86  41  20 SW17G31   29.86F
MILES CITY     PTSUNNY   98  39  13 SE5       29.78F HX  93
FORSYTH          N/A     99  39  12 NE5       29.77F HX  94
$$

REGIONAL REPORTS...DAKOTAS

CITY           SKY/WX    TMP DP  RH WIND       PRES   REMARKS
WILLISTON      MOSUNNY   92  47  21 CALM      29.78F HAZE
MINOT          MOSUNNY   86  53  32 S6        29.78F HAZE
DICKINSON      MOSUNNY   92  42  17 SW8       29.82F
BISMARCK       MOSUNNY   86  62  44 SE8       29.83F HAZE
GRAND FORKS    PTSUNNY   78  69  73 S12       29.82F
FARGO          PTSUNNY   81  67  62 S10       29.86F
BUFFALO SD       N/A     86  54  33 SE10      29.83F
RAPID CITY     SUNNY     86  55  34 SE9       29.93F
$$

REGIONAL REPORTS...WYOMING/IDAHO/WASHINGTON

CITY           SKY/WX    TMP DP  RH WIND       PRES   REMARKS
GILLETTE       SUNNY     93  37  14 S12G18    29.93F
SHERIDAN       SUNNY     97  37  12 NE7       29.87F HX  92
BUFFALO WY     MOSUNNY   91  37  15 SW8       29.97S
CODY           CLOUDY    84  43  23 CALM      29.97F
YELLOWSTONE LA   N/A     67  43  41 CALM      30.22F
IDAHO FALLS    CLOUDY    85  48  27 SW10      29.93F
SALMON         CLOUDY    82  45  26 SW21G26   29.77R
BOISE          CLOUDY    83  46  27 NE6       29.80F
SPOKANE        PTSUNNY   75  41  29 SW26G35   29.82S BLWGDUST
$$

REGIONAL REPORTS...ALBERTA

CITY           SKY/WX    TMP DP  RH WIND       PRES   REMARKS
$$

REGIONAL REPORTS...SASKATCHEWAN

CITY           SKY/WX    TMP DP  RH WIND       PRES   REMARKS
$$



USA.gov is the U.S. government's official web portal to all federal, state and local government web resources and services.